ATLAS 5 CENTAUR DEB, 46602

Orbit data source: Space-Track

ATLAS 5 CENTAUR DEB, 46602 is space debris in HEO originally from a launch on Wed, 17 Oct 2018 UTC launched from the Air Force Eastern Test Range (AFETR). Debris objects in space refer to the collection of defunct objects orbiting the Earth. Examples of debris include non-operational satellites, rocket bodies, and fragments generated from explosions, collisions, or faulty payload assembly.

Loading next visibility...
Identifier
46602, 2018-079CA
Orbit
HEO
Country
Flag of USUS
Related business
Flag of USUnited Launch Alliance/Lockheed Martin (US)
Manufacturer
ULA Decatur
Mission
Spacecraft
Bus & Motor
Unknown
Mass
Unknown
Launch date (UTC)
2018-10-17 (8 years ago)
Launch vehicle
Unknown
Launch site
Air Force Eastern Test Range (AFETR)
Object type
Payload
Rocket body
Debris
Shape & HBR
Unknown shape, 1.1 m
Radar Cross Section
Medium (>0.1 m² and <1 m²)

Expand to show TLE details & history
Last TLE update: 2 weeks ago

TLE from 2 weeks ago
0 ATLAS 5 CENTAUR DEB
1 46602U 18079CA  26239.21146975 -.00000154  00000-0  00000-0 0  9991
2 46602  13.5838  33.3215 4672353 313.6348  15.8974  1.79054447 41250
Epoch: 2026-08-27T05:04Z
TLE epoch observation values (Epoch: 2026-08-27T05:04:30.986Z)
Latitude
-0.00013°
Longitude
-18.19432°
Altitude
10,533.162 km
Speed
5.764 km/s
True Right ascension
02h 13m 33s
True Declination
0° 00' 00"
Sunlit
Object was in daylight at epoch
Visualization orbit readout
Latitude
Unknown
Longitude
Unknown
Altitude
Unknown
Speed
Unknown
Apparent Right ascension
Unknown
Apparent Declination
Unknown
Sunlit
N/A
Visualization observer readout
Local Sidereal Time
12:59:12
Azimuth
Unknown
Elevation
Unknown
Doppler factor
Unknown
Orbital elements
Apogee altitude
35,656.703 km
Perigee altitude
8,885.045 km
Semi-major axis
28,649.011 km
Eccentricity
0.46724
Inclination
13.5838°
RAAN
33.3215°
Arg. of periapsis
313.6348°
True anomaly
46.14233°
Mean anomaly
15.8974°
Eccentric anomaly
28.79025°
Mean motion
0.44759 °/min
Orbital period
804.31 mins
BSTAR
0
Loading maneuver chart data...
Computing Atmospheric mass density...

Documentation

Showing up to 5 results
|